Location: Passau
(48.5830°N, 13.4830°E)
Time: 07:16:05
(UTC+02:00)

S-56A Canister/Altair - All Passes

Search period start: 26 July 2021 00:00
Search period end: 05 August 2021 00:00
Orbit: 632 x 2501 km, 38.9° (Epoch: 25 July)

Date Brightness Start Highest point End Pass type
(mag) Time Alt. Az. Time Alt. Az. Time Alt. Az.
26 Jul - 14:27:21 10° SE 14:30:19 11° SE 14:33:20 10° ESE daylight
26 Jul - 16:21:36 10° SSW 16:33:39 32° SE 16:45:35 10° E daylight
26 Jul - 18:24:21 10° SW 18:38:38 52° SSE 18:51:13 10° E daylight
26 Jul - 20:29:50 10° WSW 20:44:09 55° S 20:55:18 10° ESE daylight
26 Jul - 22:36:40 10° W 22:48:39 37° SSW 22:57:37 10° SSE visible
27 Jul - 00:46:33 10° WSW 00:51:09 13° SW 00:55:12 10° SSW visible
27 Jul - 15:49:00 10° SSW 16:00:25 30° SE 16:12:06 10° E daylight
27 Jul - 17:51:08 10° SW 18:05:12 50° SSE 18:18:10 10° E daylight
27 Jul - 19:56:16 10° WSW 20:10:48 56° S 20:22:34 10° ESE daylight
27 Jul - 22:02:52 10° W 22:15:37 41° SSW 22:25:16 10° SE visible
28 Jul - 00:11:44 10° W 00:18:30 17° SW 00:24:10 10° SSW visible
28 Jul - 15:16:33 10° S 15:27:13 27° SE 15:38:28 10° E daylight
28 Jul - 17:18:02 10° SW 17:31:46 48° SSE 17:45:01 10° E daylight
28 Jul - 19:22:46 10° WSW 19:37:24 57° S 19:49:45 10° ESE daylight
28 Jul - 21:29:08 10° W 21:42:30 44° SSW 21:52:51 10° SE visible
28 Jul - 23:37:21 10° W 23:45:46 20° SW 23:52:39 10° S visible
29 Jul - 14:44:17 10° S 14:54:06 24° SE 15:04:40 10° E daylight
29 Jul - 16:45:02 10° SW 16:58:21 46° SSE 17:11:47 10° E daylight
29 Jul - 18:49:21 10° WSW 19:03:56 58° S 19:16:49 10° ESE daylight
29 Jul - 20:55:27 10° W 21:09:18 48° SSW 21:20:18 10° SE daylight
29 Jul - 23:03:10 10° W 23:12:57 24° SW 23:20:52 10° S visible
30 Jul - 14:12:15 10° S 14:21:02 21° SE 14:30:40 10° E daylight
30 Jul - 16:12:09 10° SW 16:24:58 44° SSE 16:38:26 10° E daylight
30 Jul - 18:16:02 10° WSW 18:30:27 57° S 18:43:49 10° ESE daylight
30 Jul - 20:21:50 10° W 20:36:01 50° SSW 20:47:40 10° SE daylight
30 Jul - 22:29:08 10° W 22:40:03 28° SW 22:48:52 10° S visible
31 Jul - 13:40:29 10° SSE 13:48:04 18° SE 13:56:24 10° E daylight
31 Jul - 15:39:23 10° SSW 15:51:38 41° SSE 16:05:00 10° E daylight
31 Jul - 17:42:49 10° WSW 17:56:57 57° S 18:10:43 10° E daylight
31 Jul - 19:48:17 10° W 20:02:40 53° SSW 20:14:56 10° SE daylight
31 Jul - 21:55:14 10° W 22:07:04 31° SW 22:16:42 10° SSE visible
01 Aug - 13:09:07 10° SSE 13:15:09 15° SE 13:21:46 10° E daylight
01 Aug - 15:06:45 10° SSW 15:18:21 38° SSE 15:31:27 10° E daylight
01 Aug - 17:09:41 10° WSW 17:23:28 56° S 17:37:30 10° E daylight
01 Aug - 19:14:50 10° W 19:29:15 55° SSW 19:42:05 10° ESE daylight
01 Aug - 21:21:25 10° W 21:33:59 35° SW 21:44:24 10° SSE visible
01 Aug - 23:32:58 10° WSW 23:36:39 12° WSW 23:40:06 10° SW visible
02 Aug - 12:38:36 10° SE 12:42:20 12° ESE 12:46:17 10° ESE daylight
02 Aug - 14:34:15 10° SSW 14:45:08 35° SE 14:57:48 10° E daylight
02 Aug - 16:36:40 10° WSW 16:49:59 54° SSE 17:04:14 10° E daylight
02 Aug - 18:41:27 10° W 18:55:47 56° S 19:09:10 10° ESE daylight
02 Aug - 20:47:42 10° W 21:00:48 38° SSW 21:11:58 10° SSE daylight
02 Aug - 22:57:26 10° W 23:03:53 15° SW 23:09:40 10° SSW visible
03 Aug - 14:01:53 10° SSW 14:12:01 31° SE 14:24:02 10° E daylight
03 Aug - 16:03:44 10° SW 16:16:32 53° SSE 16:30:50 10° E daylight
03 Aug - 18:08:10 10° W 18:22:17 57° S 18:36:07 10° ESE daylight
03 Aug - 20:14:06 10° W 20:27:34 41° SSW 20:39:24 10° SE daylight
03 Aug - 22:22:46 10° W 22:31:01 18° SW 22:38:20 10° SSW visible
04 Aug - 13:29:40 10° S 13:38:58 28° SE 13:50:10 10° E daylight
04 Aug - 15:30:56 10° SW 15:43:08 50° SSE 15:57:21 10° E daylight
04 Aug - 17:34:58 10° WSW 17:48:47 58° S 18:02:57 10° ESE daylight
04 Aug - 19:40:34 10° W 19:54:15 44° SSW 20:06:42 10° SE daylight
04 Aug - 21:48:28 10° W 21:58:04 21° SW 22:06:37 10° S visible
